Location: *
(53.9002°N, 27.5624°E)
Time: 00:15:29
(UTC+00:00)

USA 229 - Pass Details

Date: 12 November 2019
Orbit: 998 x 1215 km, 63.4° (Epoch: 11 December)

Event Time Altitude Azimuth Distance (km) Brightness Sun altitude
Rises 16:38:59 0° 207° (SSW) 3,731 6.9 -20.8°
Reaches altitude 10° 16:41:34 10° 203° (SSW) 2,801 6.2 -21.2°
Maximum altitude 16:47:58 56° 127° (SE) 1,235 3.7 -22.2°
Enters shadow 16:50:04 41° 75° (ENE) 1,498 4.0 -22.5°
